Location: Ballard
(38.3614°N, 94.1431°W)
Time: 05:25:29
(UTC-05:00)

ISS - Visible Passes

Search period start: 22 March 2019 00:00
Search period end: 01 April 2019 00:00
Orbit: 406 x 411 km, 51.6° (Epoch: 22 March)

Date Brightness Start Highest point End Pass type
(mag) Time Alt. Az. Time Alt. Az. Time Alt. Az.
22 Mar -1.9 21:20:59 10° W 21:23:52 27° NNW 21:24:40 24° N visible
23 Mar -2.8 20:29:33 10° WSW 20:32:43 45° NW 20:35:55 10° NE visible
23 Mar -0.4 22:08:39 10° NW 22:09:02 11° NNW 22:09:02 11° NNW visible
24 Mar -1.0 21:16:32 10° WNW 21:18:37 16° NNW 21:20:27 11° NNE visible
25 Mar -1.5 20:24:41 10° W 20:27:20 22° NNW 20:30:00 10° NNE visible
26 Mar -0.8 21:12:44 10° NNW 21:13:28 11° NNW 21:14:11 10° N visible
27 Mar -1.0 20:20:20 10° NW 20:22:04 13° NNW 20:23:48 10° NNE visible
31 Mar -0.9 21:47:44 10° NNW 21:48:36 12° N 21:48:36 12° N visible
